Weather History for St. Paul, MN

Change the Weather History Date:

Monday, August 11, 2014

  Actual Average Record
Temperature  
Mean Temperature 70 °F -  
Max Temperature 77 °F 78 °F 91 °F (2007)
Min Temperature 63 °F 58 °F 50 °F (2004)
Cooling Degree Days 4    
Growing Degree Days 20 (Base 50)    
Moisture  
Dew Point 63 °F    
Average Humidity 86    
Maximum Humidity 100    
Minimum Humidity 51    
Precipitation  
Precipitation 0.07 in - - ()
Sea Level Pressure  
Sea Level Pressure 29.96 in    
Wind  
Wind Speed 9 mph (NNW)    
Max Wind Speed 22 mph    
Max Gust Speed 26 mph    
Visibility 8 miles    
Events Rain , Thunderstorm    
Averages and records for this station are not official NWS values.
T = Trace of Precipitation, MM = Missing Value Source: NWS Daily Summary

Daily Weather History Graph

Daily Weather History Graph

Search for Another Location

Airport:

Trip Planner

Search our weather history database for the weather conditions in past years. The results will help you decide how hot, cold, wet, or windy it might be!

Date:

Astronomy

Aug. 11, 2014 Rise Set
Actual Time 6:09 AM CDT 8:24 PM CDT
Civil Twilight 5:37 AM CDT 8:56 PM CDT
Nautical Twilight 4:56 AM CDT 9:36 PM CDT
Astronomical Twilight 4:11 AM CDT 10:21 PM CDT
Moon 8:46 PM CDT (8/11) 7:20 AM CDT (8/11)
Length of Visible Light 15h 19m
Length of Day
14h 15m
Full, 99% of the Moon is Illuminated
Aug 11
Full
Aug 17
Last Quarter
Aug 25
New
Sep 2
First Quarter
Sep 8
Full

Hourly Weather History & Observations

Time (CDT) Temp. Dew Point Humidity Pressure Visibility Wind Dir Wind Speed Gust Speed Precip Events Conditions
12:14 AM 71.1 °F 68.0 °F 90% 29.95 in 10.0 mi SSE 4.6 mph - 0.00 in   Overcast
12:53 AM 71.1 °F 68.0 °F 90% 29.93 in 10.0 mi SSE 4.6 mph - 0.00 in   Overcast
1:14 AM 70.0 °F 68.0 °F 93% 29.94 in 10.0 mi South 3.5 mph - N/A   Overcast
1:30 AM 70.0 °F 68.0 °F 93% 29.94 in 10.0 mi South 4.6 mph - 0.00 in   Overcast
1:39 AM 71.1 °F 68.0 °F 90% 29.94 in 10.0 mi SW 5.8 mph - 0.00 in   Overcast
1:46 AM 71.1 °F 68.0 °F 90% 29.94 in 10.0 mi SW 5.8 mph - 0.00 in   Overcast
1:53 AM 71.1 °F 68.0 °F 90% 29.92 in 10.0 mi SW 5.8 mph - 0.00 in   Overcast
2:53 AM 70.0 °F 68.0 °F 93% 29.91 in 10.0 mi WSW 5.8 mph - N/A   Mostly Cloudy
3:40 AM 70.0 °F 66.9 °F 90% 29.91 in 10.0 mi WSW 5.8 mph - N/A   Overcast
3:53 AM 70.0 °F 66.9 °F 90% 29.90 in 10.0 mi West 5.8 mph - N/A   Overcast
4:09 AM 70.0 °F 66.9 °F 90% 29.91 in 8.0 mi West 8.1 mph - N/A   Overcast
4:17 AM 69.1 °F 66.9 °F 93% 29.91 in 8.0 mi West 8.1 mph - N/A   Overcast
4:53 AM 69.1 °F 66.0 °F 90% 29.89 in 8.0 mi WNW 8.1 mph - N/A   Overcast
5:31 AM 66.9 °F 66.0 °F 97% 29.90 in 2.5 mi NW 12.7 mph - 0.00 in   Overcast
5:47 AM 66.2 °F 66.2 °F 100% 29.91 in 3.0 mi NW 15.0 mph - 0.00 in   Overcast
5:53 AM 66.9 °F 64.9 °F 93% 29.89 in 5.0 mi NW 12.7 mph - 0.00 in   Overcast
6:43 AM 66.0 °F 64.0 °F 93% 29.92 in 10.0 mi NNW 12.7 mph - 0.01 in Rain Light Rain
6:53 AM 66.0 °F 64.0 °F 93% 29.91 in 10.0 mi NNW 16.1 mph - 0.01 in   Overcast
7:03 AM 66.0 °F 64.0 °F 93% 29.93 in 10.0 mi NNW 13.8 mph - N/A   Overcast
7:15 AM 66.0 °F 63.0 °F 90% 29.93 in 10.0 mi NNW 11.5 mph - N/A   Overcast
7:53 AM 66.0 °F 63.0 °F 90% 29.94 in 7.0 mi NNW 11.5 mph - 0.00 in Rain Light Rain
8:53 AM 66.0 °F 63.0 °F 90% 29.96 in 9.0 mi North 11.5 mph - 0.00 in Rain Light Rain
9:06 AM 66.0 °F 63.0 °F 90% 29.97 in 7.0 mi North 10.4 mph - 0.00 in Rain Light Rain
9:28 AM 64.9 °F 63.0 °F 93% 29.98 in 1.8 mi NNW 15.0 mph - 0.02 in Rain Light Rain
9:46 AM 64.4 °F 62.6 °F 94% 29.98 in 2.5 mi NNW 11.5 mph - N/A Rain Light Rain
9:50 AM 64.4 °F 62.6 °F 94% 29.99 in 3.0 mi North 11.5 mph - 0.04 in Rain Light Rain
9:53 AM 64.0 °F 62.1 °F 93% 29.98 in 4.0 mi North 11.5 mph - 0.04 in Rain Light Rain
10:07 AM 64.9 °F 63.0 °F 93% 29.99 in 9.0 mi NNW 12.7 mph - 0.00 in   Overcast
10:27 AM 64.0 °F 62.1 °F 93% 30.00 in 5.0 mi NNW 13.8 mph - 0.00 in Rain Light Rain
10:53 AM 64.0 °F 62.1 °F 93% 29.99 in 4.0 mi North 15.0 mph - 0.00 in Rain Light Rain
11:53 AM 64.0 °F 62.1 °F 93% 30.01 in 5.0 mi NNW 10.4 mph 20.7 mph 0.01 in   Overcast
12:48 PM 64.4 °F 62.6 °F 94% 30.02 in 7.0 mi North 13.8 mph - N/A Rain Light Rain
12:53 PM 64.9 °F 62.1 °F 90% 30.01 in 4.0 mi NNW 12.7 mph 20.7 mph 0.01 in Rain Light Rain
1:53 PM 68.0 °F 63.0 °F 84% 30.01 in 10.0 mi North 8.1 mph - 0.00 in   Overcast
2:53 PM 72.0 °F 64.0 °F 76% 30.01 in 10.0 mi NNE 10.4 mph - 0.00 in   Scattered Clouds
3:53 PM 73.9 °F 62.1 °F 66% 30.00 in 10.0 mi NNE 8.1 mph - N/A   Scattered Clouds
4:53 PM 75.9 °F 60.1 °F 58% 29.99 in 10.0 mi North 10.4 mph - N/A   Mostly Cloudy
5:53 PM 75.0 °F 55.9 °F 51% 29.99 in 10.0 mi North 21.9 mph 26.5 mph N/A Thunderstorm Scattered Clouds
6:07 PM 75.0 °F 57.0 °F 53% 30.01 in 10.0 mi NNE 16.1 mph 24.2 mph N/A   Mostly Cloudy
6:53 PM 70.0 °F 57.0 °F 63% 30.01 in 10.0 mi North 11.5 mph 19.6 mph 0.00 in Rain Light Rain
7:53 PM 71.1 °F 57.9 °F 63% 30.01 in 10.0 mi North 9.2 mph - 0.00 in   Partly Cloudy
8:53 PM 66.0 °F 60.1 °F 81% 30.03 in 10.0 mi NW 8.1 mph - N/A   Partly Cloudy
9:53 PM 64.9 °F 60.1 °F 84% 30.04 in 10.0 mi NNW 5.8 mph - N/A   Clear
10:53 PM 64.0 °F 59.0 °F 84% 30.04 in 10.0 mi NNW 9.2 mph - N/A   Mostly Cloudy
11:53 PM 63.0 °F 57.9 °F 84% 30.05 in 10.0 mi North 8.1 mph - N/A   Clear